Regional Weather Roundup
Issued by NWS

Home | Current Version | Previous Version | Text Only | Print | Product List | Glossary Off
Versions: 1 2 3 4 5 6 7 8 9 10 11 12 13 14 15 16 17 18 19 20 21 22 23 24 25 26 27 28 29 30 31 32 33 34 35 36 37 38 39 40 41 42 43 44 45 46 47 48 49 50

000
ASUS43 KDMX 252308
RWRIA

WEATHER ROUNDUP FOR IOWA
NATIONAL WEATHER SERVICE DES MOINES IA
600 PM CDT THU AUG 25 2016

NOTE: "FAIR" INDICATES FEW OR NO CLOUDS BELOW 12,000 FEET WITH NO
SIGNIFICANT WEATHER AND/OR OBSTRUCTIONS TO VISIBILITY.

* - THESE STATIONS ARE NOT NWS STATIONS...THUS NOT UNDER NWS
QUALITY CONTROL.  THEY ALSO DO NOT REPORT WEATHER SUCH
AS PRECIPITATION OR FOG.

IAZ001>003-012>014-020>022-031>034-043>046-260000-
   NORTHWEST IOWA

CITY           SKY/WX    TMP DP  RH WIND       PRES   REMARKS
CARROLL *      SUNNY     77  61  57 NW7       30.11S
CHEROKEE *     SUNNY     74  58  57 NW6       30.13S
DENISON *      SUNNY     75  61  60 NW8       30.10F
LE MARS *      SUNNY     73  57  56 NW8       30.14F
ORANGE CITY *  SUNNY     73  61  64 NW8       30.13F
SHELDON *      SUNNY     73  57  56 NW5       30.11F
SIOUX CITY     SUNNY     75  58  55 N9        30.12F
SPENCER        SUNNY     74  56  53 NW13      30.12F
STORM LAKE *   SUNNY     73  57  56 NW7       30.13F
$$

IAZ055>058-069>071-079>083-090>094-260000-
   SOUTHWEST IOWA

CITY           SKY/WX    TMP DP  RH WIND       PRES   REMARKS
ATLANTIC *     SUNNY     75  63  64 N5        30.10F
AUDUBON *      SUNNY     75  63  64 NE3       30.12F
CLARINDA *       N/A     75  63  64 MISG      30.11F
COUNCIL BLFS * CLOUDY    75  64  69 N5        30.12S
CRESTON *      MOSUNNY   73  63  68 N8        30.11F
HARLAN  *      SUNNY     75  61  60 NE5       30.15S
LAMONI         SUNNY     73  63  70 N8        30.09F
RED OAK *      SUNNY     75  63  64 NE6       30.11S
SHENANDOAH *   SUNNY     73 -35   1 NE6       30.10F
$$

IAZ047>049-059>061-072>074-084-260000-
   CENTRAL IOWA

CITY           SKY/WX    TMP DP  RH WIND       PRES   REMARKS
AMES           PTSUNNY   76  63  64 N3        30.10S
ANKENY *         N/A    N/A N/A N/A MISG        N/A
BOONE *        CLOUDY    75  59  57 NW5       30.10S
CHARITON *       N/A     72  64  78 MISG      30.09F
DES MOINES     CLOUDY    76  62  62 N7        30.09F
GRINNELL*      CLOUDY    72  64  76 N6        30.11S
KNOXVILLE *    CLOUDY    73  64  73 NW6       30.08F
MARSHALLTOWN   CLOUDY    74  66  76 W3        30.09F
NEWTON *       CLOUDY    73  64  73 N6        30.09F
PERRY *          N/A     76  64  66 CALM      30.10F
$$

IAZ004>006-015-016-023>025-035-036-260000-
   NORTH CENTRAL IOWA

CITY           SKY/WX    TMP DP  RH WIND       PRES   REMARKS
ALGONA *       SUNNY     77  57  50 W8        30.11F
ESTHERVILLE    SUNNY     72  61  68 W10       30.11S
FORT DODGE *   MOSUNNY   75  63  64 NW6       30.11F
MASON CITY     SUNNY     75  58  55 W8        30.11S
FOREST CITY *    N/A    N/A N/A N/A MISG        N/A
WEBSTER CITY * CLOUDY    77  63  61 W6        30.09S
IOWA FALLS *     N/A     75  61  61 SW3       30.11S
$$

IAZ007>011-017>019-026>030-037>042-050>054-066-260000-
   NORTHEAST IOWA

CITY           SKY/WX    TMP DP  RH WIND       PRES   REMARKS
CEDAR RAPIDS   CLOUDY    73  65  75 N6        30.08F
CHARLES CITY * SUNNY     75  63  64 W7        30.09F
CLINTON *      MOSUNNY   75  67  76 NW5       30.07F
DECORAH *      SUNNY     75  61  60 VRB7      30.07F
DUBUQUE        CLOUDY    73  63  70 W5        30.09S
MONTICELLO *   CLOUDY    73  64  73 NW6       30.07F
OELWEIN *      CLOUDY    75  63  64 W5        30.10S
WATERLOO       CLOUDY    74  60  61 W5        30.07F
$$

IAZ064-065-067-068-078-260000-
   EAST CENTRAL IOWA

CITY           SKY/WX    TMP DP  RH WIND       PRES   REMARKS
DAVENPORT      MOSUNNY   76  63  64 NW5       30.08S
IOWA CITY      CLOUDY    77  64  64 N8        30.08F
MT. PLEASANT * PTSUNNY   77  66  68 N6        30.07S
MUSCATINE *    PTSUNNY   75  64  69 N5        30.07S
QUAD CITIES    SUNNY     79  66  64 NW8       30.05F HX  81
$$

IAZ062-063-075>077-085>089-095>099-260000-
   SOUTHEAST IOWA

CITY           SKY/WX    TMP DP  RH WIND       PRES   REMARKS
BURLINGTON     SUNNY     79  64  60 N7        30.06R HX  81
FAIRFIELD *    CLOUDY    75  64  69 NW5       30.07F
FORT MADISON *   N/A     77  63  61 N7        30.07S
KEOKUK *       PTSUNNY   79  66  65 N6        30.05S HX  81
OSKALOOSA *    CLOUDY    72  66  79 N5        30.09S
OTTUMWA        CLOUDY    76  64  66 N10       30.08R
WASHINGTON *   CLOUDY    77  64  65 N9        30.08F
$$

ABBREVIATIONS USED IN REMARKS
   TC - TEMPERATURES IN CELSIUS
  WCI - WIND CHILL INDEX
   HX - HEAT INDEX
  VSB - VISIBILITY
$$





USA.gov is the U.S. government's official web portal to all federal, state and local government web resources and services.